SCP
0 0 0 0 0 0 0 0 0 0 0 0 0 0 0 0 0 0 0 0 0 0
0 0 0 0 0 0 0 0 0 0 0 0 0 0 0 0 0 0 0 0 0 0
0 0 0 0 0 0 0 0 0 0 0 0 0 0 0 0 0 0 0 0 0 0
0 0 0 0 0 0 0 0 0 0 0 0 0 0 0 0 0 0 0 0 0 0
0 0 0 0 0 0 0 0 0 0 0 0 0 0 0 0 0 0 0 0 0 0
0 0 0 0 0 0 0 0 0 0 0 0 0 0 0 0 0 0 0 0 0 0
0 0 0 0 0 0 0 0 0 0 -0 0 0 0 0 0 0 0 0 0 0 0
0 0 0 0 0 0 0 0 0 0 0 0 0 0 0 0 0 0 0 0 0 0
0 0 0 0 0 0 0 0 0 0 0 0 0 0 0 0 0 0 0 0 0 0
0 0 0 0 0 0 0 0 0 0 0 0 0 0 0 0 0 0 0 0 0 0
0 0 0 0 0 0 0 0 0 0 0 0 0 0 0 0 0 0 0 0 0 0
0 0 0 0 0 0 0 0 0 0 0 0 0 0 0 0 0 0 0 0 0 0
0 0 0 0 0 0 0 0 0 0 0 0 0 0 0 0 0 0 0 0 0 0
0 0 0 0 0 0 0 0 0 0 0 0 0 0 0 0 0 0 0 0 0 0
Wind_Speed_500mb
74 79 95 95 97 91 89 85 79 75 76 90 88 78 75 71 68 69 72 75 75 75
55 75 84 87 86 83 83 81 74 68 62 64 84 88 79 79 77 75 83 75 81 81
67 71 76 81 59 55 65 75 70 67 62 60 59 83 83 80 81 86 85 80 66 64
36 52 68 70 58 54 53 56 64 67 62 61 64 70 79 79 84 81 70 54 46 35
33 57 76 82 65 58 56 49 71 64 60 75 74 73 83 65 49 39 42 38 33 31
33 31 46 77 74 74 59 59 54 45 23 37 33 35 31 24 29 36 35 29 35 35
30 30 33 46 63 67 63 57 54 37 31 42 25 28 23 25 29 38 34 37 30 26
28 25 25 30 42 45 53 63 66 57 60 53 45 40 44 43 50 51 45 39 35 32
24 20 24 24 29 38 50 54 76 86 87 81 73 73 63 65 62 50 43 39 35 29
17 16 20 22 26 31 36 52 63 71 70 61 62 51 57 53 51 47 37 25 30 29
15 13 17 23 28 32 37 46 60 54 42 51 55 58 54 54 50 37 38 37 33 28
13 12 16 20 26 34 41 48 46 52 59 62 60 54 48 47 44 35 34 35 33 28
14 16 23 27 32 39 39 47 57 60 56 54 57 46 37 38 38 38 40 38 34 26
20 25 33 42 50 57 62 65 67 66 62 56 50 48 42 35 31 33 30 27 27 22
Wind_Direction_500mb
252 255 248 245 246 247 249 252 253 254 256 245 242 240 242 243 245 246 246 246 247 248
272 251 253 251 251 252 253 255 257 260 258 251 242 238 240 241 245 247 253 243 251 248
254 258 265 244 251 258 265 258 258 256 249 252 249 236 237 240 247 247 245 245 239 222
251 253 257 259 256 263 270 267 266 259 250 248 244 235 237 237 247 237 232 195 182 171
277 259 262 253 258 254 260 271 257 257 257 243 238 233 232 226 187 180 174 170 185 198
270 256 245 241 248 245 252 257 249 265 272 240 164 131 138 166 186 192 197 204 193 184
284 254 264 244 232 234 239 242 253 256 166 156 170 162 155 166 195 208 186 186 182 161
282 263 249 248 245 243 235 217 212 207 185 197 213 196 198 191 191 192 179 162 151 140
285 266 254 243 233 238 239 218 189 183 195 191 191 192 190 187 183 165 150 148 146 145
269 247 235 236 230 217 224 210 193 188 186 180 179 175 166 156 144 136 134 149 150 147
255 239 219 207 211 206 206 207 199 193 172 154 135 136 132 129 124 140 149 145 138 139
233 217 199 180 182 183 183 177 169 156 150 144 129 125 131 134 138 142 147 140 137 137
199 184 178 166 161 159 163 155 144 138 138 134 126 122 126 127 140 148 155 145 137 134
167 165 164 153 147 147 142 138 133 129 127 122 121 126 129 141 147 141 141 143 141 131
Wind_Speed_850mb
74 79 95 95 97 91 89 85 79 75 76 90 88 78 75 71 68 69 72 75 75 75
55 75 84 87 86 83 83 81 74 68 62 64 84 88 79 79 77 75 83 75 81 81
67 71 76 81 59 55 65 75 70 67 62 60 59 83 83 80 81 86 85 80 66 64
36 52 68 70 58 54 53 56 64 67 62 61 64 70 79 79 84 81 70 54 46 35
33 57 76 82 65 58 56 49 71 64 60 75 74 73 83 65 49 39 42 38 33 31
33 31 46 77 74 74 59 59 54 45 23 37 33 35 31 24 29 36 35 29 35 35
30 30 33 46 63 67 63 57 54 37 31 42 25 28 23 25 29 38 34 37 30 26
28 25 25 30 42 45 53 63 66 57 60 53 45 40 44 43 50 51 45 39 35 32
24 20 24 24 29 38 50 54 76 86 87 81 73 73 63 65 62 50 43 39 35 29
17 16 20 22 26 31 36 52 63 71 70 61 62 51 57 53 51 47 37 25 30 29
15 13 17 23 28 32 37 46 60 54 42 51 55 58 54 54 50 37 38 37 33 28
13 12 16 20 26 34 41 48 46 52 59 62 60 54 48 47 44 35 34 35 33 28
14 16 23 27 32 39 39 47 57 60 56 54 57 46 37 38 38 38 40 38 34 26
20 25 33 42 50 57 62 65 67 66 62 56 50 48 42 35 31 33 30 27 27 22
Wind_Direction_850mb
252 255 248 245 246 247 249 252 253 254 256 245 242 240 242 243 245 246 246 246 247 248
272 251 253 251 251 252 253 255 257 260 258 251 242 238 240 241 245 247 253 243 251 248
254 258 265 244 251 258 265 258 258 256 249 252 249 236 237 240 247 247 245 245 239 222
251 253 257 259 256 263 270 267 266 259 250 248 244 235 237 237 247 237 232 195 182 171
277 259 262 253 258 254 260 271 257 257 257 243 238 233 232 226 187 180 174 170 185 198
270 256 245 241 248 245 252 257 249 265 272 240 164 131 138 166 186 192 197 204 193 184
284 254 264 244 232 234 239 242 253 256 166 156 170 162 155 166 195 208 186 186 182 161
282 263 249 248 245 243 235 217 212 207 185 197 213 196 198 191 191 192 179 162 151 140
285 266 254 243 233 238 239 218 189 183 195 191 191 192 190 187 183 165 150 148 146 145
269 247 235 236 230 217 224 210 193 188 186 180 179 175 166 156 144 136 134 149 150 147
255 239 219 207 211 206 206 207 199 193 172 154 135 136 132 129 124 140 149 145 138 139
233 217 199 180 182 183 183 177 169 156 150 144 129 125 131 134 138 142 147 140 137 137
199 184 178 166 161 159 163 155 144 138 138 134 126 122 126 127 140 148 155 145 137 134
167 165 164 153 147 147 142 138 133 129 127 122 121 126 129 141 147 141 141 143 141 131